Location: Unspecified
(35.6961°N, 0.0000°E)
Time: 03:29:12
(UTC+00:00)

Vanguard 3 - Pass Details

Date: 31 May 2019
Orbit: 508 x 3263 km, 33.3° (Epoch: 19 June)

Event Time Altitude Azimuth Distance (km) Brightness Sun altitude
Rises 23:47:29 0° 276° (W) 3,900 10.7 -32.3°
Reaches altitude 10° 23:49:53 10° 268° (W) 3,224 10.2 -32.3°
Enters shadow 23:52:40 24° 254° (WSW) 2,630 9.5 -32.3°
Maximum altitude 23:57:39 41° 202° (SSW) 2,423 - -32.3°
Drops below altitude 10° 00:10:36 10° 139° (SE) 5,322 - -32.2°
Sets 00:15:56 0° 133° (SE) 6,700 - -32.2°
